{"data":{"norad_id":67383,"intl_designator":"2026-004W","name":"AETHER-12","alt_names":[],"object_type":"PAYLOAD","status":"ACTIVE","operator":null,"country":"CA","launch_date":"2026-01-11","launch_site_code":"AFWTR","launch_vehicle":null,"mission":null,"orbit_class":"UNKNOWN","rcs_meters":null,"size_class":null,"mass_kg":null,"dimensions":null,"purposes":[],"wikipedia_slug":null,"has_3d_model":false,"image_url":null,"decayed_at":null,"tle_current":{"epoch":"2026-09-20T13:25:19.338240Z","epoch_age_seconds":95296,"freshness":"FRESH","line1":"1 67383U 26004W   26263.55925160  .00000538  00000+0  67947-4 0  9993","line2":"2 67383  97.8078 260.2742 0000338 151.2300 208.8934 14.85843603 37441","mean_motion":14.85843603,"eccentricity":3.38e-5,"inclination_deg":97.8078,"raan_deg":260.2742,"arg_perigee_deg":151.23,"mean_anomaly_deg":208.8934,"bstar":6.7947e-5,"rev_number":3744,"period_min":96.914641426094,"perigee_km":610.70296818082,"apogee_km":611.17542973187,"semimajor_km":6989.0761989563,"source":"CELESTRAK","updated_at":"2026-09-21T09:00:16.596656Z"}}}